This is the latest recevied weather packets stored in our database for station/object KQ4NAL. If no packets are shown the sender has not sent any weather packets the latest 10 day(s).
| Time | Temp. | Humidity | Pressure | Rain* | Wind** | Luminosity | Snow |
|---|---|---|---|---|---|---|---|
| 1777380381 | 16.11° C | 99% | 1014.1 hPa | 0 mm | - | 41 W/m² | - |
| 1777380078 | 16.11° C | 99% | 1014.2 hPa | 0 mm | - | 37 W/m² | - |
| 1777379774 | 16.11° C | 99% | 1013.7 hPa | 0 mm | - | 40 W/m² | - |
| 1777379469 | 15.56° C | 99% | 1013.8 hPa | 0 mm | - | 26 W/m² | - |
| 1777379164 | 15.56° C | 99% | 1013.8 hPa | 0 mm | - | 41 W/m² | - |
| 1777378860 | 15.56° C | 99% | 1013.7 hPa | 0 mm | - | 26 W/m² | - |
| 1777378556 | 15.56° C | 99% | 1013.7 hPa | 0 mm | - | 26 W/m² | - |
| 1777378253 | 15.56° C | 99% | 1013.6 hPa | 0 mm | - | 26 W/m² | - |
| 1777377951 | 15.56° C | 99% | 1013.4 hPa | 0 mm | - | 23 W/m² | - |
| 1777377650 | 15.56° C | 99% | 1013.3 hPa | 0 mm | - | 26 W/m² | - |
| 1777377346 | 15.56° C | 99% | 1013.1 hPa | 0 mm | - | 29 W/m² | - |
| 1777377043 | 15.56° C | 99% | 1013.2 hPa | 0 mm | - | 25 W/m² | - |
| 1777376740 | 15.56° C | 99% | 1013.5 hPa | 0 mm | - | 19 W/m² | - |
| 1777376437 | 15.56° C | 99% | 1013.1 hPa | 0 mm | - | 13 W/m² | - |
| 1777376133 | 15.56° C | 99% | 1013 hPa | 0 mm | - | 11 W/m² | - |
| 1777375832 | 15.56° C | 99% | 1013 hPa | 0 mm | - | 10 W/m² | - |
| 1777375527 | 15.56° C | 99% | 1013 hPa | 0 mm | - | 10 W/m² | - |
| 1777375224 | 15.56° C | 99% | 1012.8 hPa | 0 mm | - | 9 W/m² | - |
| 1777374919 | 15° C | 99% | 1012.6 hPa | 0 mm | - | 6 W/m² | - |
| 1777374615 | 15° C | 99% | 1012.7 hPa | 0 mm | - | 3 W/m² | - |
| 1777374312 | 15° C | 99% | 1012.5 hPa | 0 mm | - | 3 W/m² | - |
| 1777374008 | 15° C | 99% | 1012.3 hPa | 0 mm | - | 1 W/m² | - |
| 1777373705 | 15° C | 99% | 1012.5 hPa | 0 mm | - | 1 W/m² | - |
| 1777373402 | 15° C | 99% | 1012.2 hPa | 0 mm | - | 0 W/m² | - |
| 1777373097 | 15° C | 99% | 1012.1 hPa | 0 mm | - | 0 W/m² | - |
* Rain latest hour (hover to see other rain measurements)
** Current wind speed in m/s (hover to see current wind gust speed)